Location: *
(39.6167°S, 171.5333°W)
Time: 06:02:26
(UTC+00:00)

Envisat - Pass Details

Date: 13 May 2021
Orbit: 764 x 766 km, 98.1° (Epoch: 16 June)

Event Time Altitude Azimuth Distance (km) Brightness Sun altitude
Rises 16:22:56 0° 4° (N) 3,220 6.4 -23.0°
Reaches altitude 10° 16:25:16 10° 360° (N) 2,303 5.5 -22.5°
Maximum altitude 16:30:16 58° 281° (W) 896 3.0 -21.6°
Enters shadow 16:32:23 34° 216° (SW) 1,271 3.8 -21.2°
